This is the latest recevied weather packets stored in our database for station/object W4DHW-4. If no packets are shown the sender has not sent any weather packets the latest 10 day(s).
| Time | Temp. | Humidity | Pressure | Rain* | Wind** | Luminosity | Snow |
|---|---|---|---|---|---|---|---|
| 1777666047 | 18.89° C | 41% | 1011.4 hPa | 0 mm | - | 70 W/m² | - |
| 1777665744 | 18.33° C | 41% | 1011.5 hPa | 0 mm | - | 70 W/m² | - |
| 1777665441 | 18.89° C | 40% | 1011.6 hPa | 0 mm | - | 69 W/m² | - |
| 1777665137 | 18.89° C | 40% | 1011.8 hPa | 0 mm | - | 620 W/m² | - |
| 1777664833 | 18.33° C | 42% | 1011.6 hPa | 0 mm | - | 635 W/m² | - |
| 1777664529 | 18.33° C | 41% | 1011.9 hPa | 0 mm | - | 666 W/m² | - |
| 1777664226 | 18.89° C | 42% | 1012 hPa | 0 mm | - | 669 W/m² | - |
| 1777663924 | 17.78° C | 42% | 1012.3 hPa | 0 mm | - | 655 W/m² | - |
| 1777663621 | 17.78° C | 42% | 1012.3 hPa | 0 mm | - | 675 W/m² | - |
| 1777663319 | 17.78° C | 42% | 1012.4 hPa | 0 mm | - | 707 W/m² | - |
| 1777663015 | 17.78° C | 43% | 1012.7 hPa | 0 mm | - | 704 W/m² | - |
| 1777662713 | 17.78° C | 43% | 1012.5 hPa | 0 mm | - | 710 W/m² | - |
| 1777662409 | 17.78° C | 42% | 1012.4 hPa | 0 mm | - | 724 W/m² | - |
| 1777662104 | 17.22° C | 44% | 1012.6 hPa | 0 mm | - | 721 W/m² | - |
| 1777661800 | 17.22° C | 43% | 1012.8 hPa | 0 mm | - | 698 W/m² | - |
| 1777661496 | 17.22° C | 43% | 1013 hPa | 0 mm | - | 704 W/m² | - |
| 1777661193 | 17.78° C | 42% | 1012.8 hPa | 0 mm | - | 733 W/m² | - |
| 1777660887 | 17.22° C | 43% | 1013 hPa | 0 mm | - | 745 W/m² | - |
| 1777660585 | 17.22° C | 42% | 1013.1 hPa | 0 mm | - | 739 W/m² | - |
| 1777660281 | 17.22° C | 43% | 1013.2 hPa | 0 mm | - | 724 W/m² | - |
| 1777659978 | 16.67° C | 44% | 1013 hPa | 0 mm | - | 716 W/m² | - |
| 1777659674 | 16.67° C | 44% | 1013.3 hPa | 0 mm | - | 711 W/m² | - |
| 1777659372 | 16.67° C | 44% | 1013.4 hPa | 0 mm | - | 741 W/m² | - |
| 1777659068 | 17.22° C | 45% | 1013.4 hPa | 0 mm | - | 756 W/m² | - |
| 1777658767 | 16.67° C | 44% | 1013.5 hPa | 0 mm | - | 757 W/m² | - |
* Rain latest hour (hover to see other rain measurements)
** Current wind speed in m/s (hover to see current wind gust speed)